Regional Weather Roundup
Issued by NWS

Home | Current Version | Previous Version | Graphics & Text | Print | Product List | Glossary On
Versions: 1 2 3 4 5 6 7 8 9 10 11 12 13 14 15 16 17 18 19 20 21 22 23 24 25 26 27 28 29 30 31 32 33 34 35 36 37 38 39 40 41 42 43 44 45 46 47 48 49 50
000
ASUS45 KABQ 200310
RWRNM
NEW MEXICO REGIONAL WEATHER ROUNDUP
NATIONAL WEATHER SERVICE ALBUQUERQUE NM
900 PM MDT THU APR 19 2018

NOTE: "FAIR" MEANS FEW OR NO CLOUDS BELOW 12,000 FEET AGL WITH NO
       SIGNIFICANT WEATHER OR OBSTRUCTIONS TO VISION.

      THIS PRODUCT IS RELEASED AS TWO VERSIONS.  ONE VERSION NEAR
      THE TOP OF THE HOUR CONTAINING PRELIMINARY DATA FROM ALBUQUERQUE
      AND OTHER STATIONS.  A FINAL VERSION WITH ADDITIONAL DATA IS
      ISSUED ABOUT 10 MINUTES AFTER THE HOUR.

NMZ501-503-504-510>518-200400-
NORTHWEST PLATEAU/NORTHCENTRAL MOUNTAINS

CITY           SKY/WX    TMP DP  RH WIND       PRES   REMARKS
FARMINGTON     FAIR      68   7   9 S13       29.72F
LOS ALAMOS     FAIR      52  22  30 S18G31    30.10R
SANTA FE       FAIR      56  24  29 SE38G52   30.02S
TAOS           FAIR      52  22  30 SE24G30   30.09S
ANGEL FIRE     FAIR      43  21  41 S28G38    30.18S

$$
NMZ402-403-502-505>509-200400-
WESTCENTRAL MOUNTAINS/SOUTHWEST MOUNTAINS

CITY           SKY/WX    TMP DP  RH WIND       PRES   REMARKS
GALLUP         FAIR      64   4   9 SW17G26   29.81R
GRANTS         FAIR      64   8  11 S15G23    29.87F
SILVER CITY    FAIR      68   5   8 SW12      29.93S

$$
NMZ407-409-411-412-200400-
SOUTHERN DESERTS

CITY           SKY/WX    TMP DP  RH WIND       PRES   REMARKS
DEMING         FAIR      79  28  15 S12       29.88R
LAS CRUCES     FAIR      71  33  24 E26G33    29.94F
HOLLOMAN AFB   FAIR      72  33  24 SE25G31   29.95S
ALAMOGORDO     FAIR      72  34  25 SE14G23   29.95S
T OR C         FAIR      71  32  23 SE28G36   29.88F

$$
NMZ519>523-200400-
CENTRAL VALLEYS/CENTRAL HIGHLANDS

CITY           SKY/WX    TMP DP  RH WIND       PRES   REMARKS
ALBUQUERQUE    MOCLDY    64  26  23 SE32G40   29.92S
MORIARTY ARPT  FAIR      57  25  28 SE31      30.08S
CLINES CORNERS FAIR      51  23  33 SE22G40   30.14S
BELEN          FAIR      65  24  21 SE28G35   29.92R
SOCORRO        FAIR      68  32  26 S18G28    29.90S

$$
NMZ524>526-539-540-200400-
SOUTHCENTRAL MOUNTAINS

CITY           SKY/WX    TMP DP  RH WIND       PRES   REMARKS
RUIDOSO        NOT AVBL

$$
NMZ527>531-200400-
NORTHEAST HIGHLANDS/NORTHEAST PLAINS

CITY           SKY/WX    TMP DP  RH WIND       PRES   REMARKS
LAS VEGAS      FAIR      49  23  36 SE12      30.18R
RATON          FAIR      51  23  33 S18       30.13S
CLAYTON        FAIR      53  23  31 SE16      30.15R

$$
NMZ532>537-200400-
EASTCENTRAL PLAINS

CITY           SKY/WX    TMP DP  RH WIND       PRES   REMARKS
SANTA ROSA     FAIR      60  25  25 SE18G26   30.11R
TUCUMCARI      FAIR      62  23  22 SE18G28   30.09F
CANNON AFB     FAIR      56  21  26 SE9       30.20R
CLOVIS AIRPORT FAIR      57  21  24 SE12      30.20R

$$
NMZ028-029-538-200400-
SOUTHEAST PLAINS

CITY           SKY/WX    TMP DP  RH WIND       PRES   REMARKS
ROSWELL        FAIR      66  28  24 SE13      30.08R
ARTESIA        FAIR      68  28  22 SE20G28   30.08S
CARLSBAD       FAIR      67  35  30 SE18G28   30.07F
HOBBS          CLOUDY    64  19  17 SE16G24   30.14S


$$




USA.gov is the U.S. government's official web portal to all federal, state and local government web resources and services.